Location: Newark
(50.0306°N, 2.3272°E)
Time: 23:21:58
(UTC+00:00)

Transit 2A Rocket - Pass Details

Date: 14 December 2019
Orbit: 593 x 910 km, 66.7° (Epoch: 18 January)

Event Time Altitude Azimuth Distance (km) Brightness Sun altitude
Rises 16:49:11 0° 246° (WSW) 2,905 10.5 -9.1°
Reaches altitude 10° 16:51:42 10° 257° (WSW) 1,971 8.7 -9.5°
Maximum altitude 16:55:36 30° 320° (NW) 1,084 6.0 -10.1°
Drops below altitude 10° 16:59:26 10° 22° (NNE) 1,937 6.7 -10.6°
Enters shadow 16:59:59 - 26° (NNE) 2,133 6.9 -10.7°
Sets 17:01:54 0° 34° (NNE) 2,848 - -11.0°
